TimePST,TemperatureF,Dew PointF,Humidity,Sea Level PressureIn,VisibilityMPH,Wind Direction,Wind SpeedMPH,Gust SpeedMPH,PrecipitationIn,Events,Conditions,WindDirDegrees,DateUTC
12:02 AM,39.2,37.4,93,30.18,0.5,NW,5.8,-,N/A,Fog,Fog,310,2012-01-04 08:02:00
12:06 AM,39.2,39.2,100,30.18,0.8,Calm,Calm,-,N/A,,Clear,0,2012-01-04 08:06:00
12:09 AM,39.2,39.2,100,30.18,1.0,Calm,Calm,-,N/A,,Clear,0,2012-01-04 08:09:00
12:10 AM,41.0,41.0,100,30.18,1.2,Calm,Calm,-,N/A,,Clear,0,2012-01-04 08:10:00
12:12 AM,41.0,41.0,100,30.18,1.8,SW,3.5,-,N/A,,Clear,220,2012-01-04 08:12:00
12:13 AM,41.0,41.0,100,30.19,2.0,Calm,Calm,-,N/A,,Clear,0,2012-01-04 08:13:00
12:14 AM,41.0,41.0,100,30.19,2.5,Calm,Calm,-,N/A,,Clear,0,2012-01-04 08:14:00
12:15 AM,41.0,41.0,100,30.19,4.0,SW,3.5,-,N/A,,Clear,230,2012-01-04 08:15:00
12:19 AM,39.2,39.2,100,30.19,2.0,SSE,4.6,-,N/A,,Clear,160,2012-01-04 08:19:00
12:20 AM,39.2,39.2,100,30.19,1.5,Variable,3.5,-,N/A,,Clear,0,2012-01-04 08:20:00
12:21 AM,39.2,39.2,100,30.19,1.0,Calm,Calm,-,N/A,,Clear,0,2012-01-04 08:21:00
12:23 AM,37.4,37.4,100,30.19,0.8,Calm,Calm,-,N/A,,Clear,0,2012-01-04 08:23:00
12:25 AM,37.4,37.4,100,30.19,0.8,SSE,5.8,-,N/A,,Clear,160,2012-01-04 08:25:00
12:28 AM,37.4,37.4,100,30.19,0.8,Calm,Calm,-,N/A,,Clear,0,2012-01-04 08:28:00
12:30 AM,37.4,37.4,100,30.19,0.8,Variable,4.6,-,N/A,,Clear,0,2012-01-04 08:30:00
12:31 AM,37.4,37.4,100,30.19,1.0,SE,4.6,-,N/A,,Partly Cloudy,140,2012-01-04 08:31:00
12:32 AM,37.4,37.4,100,30.19,1.2,Calm,Calm,-,N/A,,Partly Cloudy,0,2012-01-04 08:32:00
12:42 AM,37.4,37.4,100,30.19,1.2,Calm,Calm,-,N/A,,Partly Cloudy,0,2012-01-04 08:42:00
12:46 AM,37.4,37.4,100,30.20,1.8,Calm,Calm,-,N/A,,Partly Cloudy,0,2012-01-04 08:46:00
12:51 AM,35.6,35.6,100,30.20,1.5,Calm,Calm,-,N/A,,Scattered Clouds,0,2012-01-04 08:51:00
12:55 AM,36.1,36.0,99,30.20,1.2,Calm,Calm,-,N/A,,Scattered Clouds,0,2012-01-04 08:55:00
12:59 AM,37.4,37.4,100,30.20,1.8,Calm,Calm,-,N/A,,Partly Cloudy,0,2012-01-04 08:59:00
1:00 AM,37.4,37.4,100,30.20,2.5,Calm,Calm,-,N/A,,Partly Cloudy,0,2012-01-04 09:00:00
1:01 AM,37.4,37.4,100,30.20,3.0,Calm,Calm,-,N/A,,Partly Cloudy,0,2012-01-04 09:01:00
1:55 AM,39.6,39.2,99,30.18,6.0,ESE,4.6,-,N/A,,Overcast,110,2012-01-04 09:55:00
2:55 AM,40.8,40.6,99,30.17,10.0,Calm,Calm,-,N/A,,Overcast,0,2012-01-04 10:55:00
3:55 AM,39.6,39.4,99,30.16,10.0,Calm,Calm,-,N/A,,Overcast,0,2012-01-04 11:55:00
4:55 AM,38.5,38.3,99,30.15,10.0,Calm,Calm,-,N/A,,Mostly Cloudy,0,2012-01-04 12:55:00
5:55 AM,39.7,39.6,99,30.12,10.0,Calm,Calm,-,N/A,,Overcast,0,2012-01-04 13:55:00
6:55 AM,51.4,41.2,68,30.08,10.0,South,9.2,-,N/A,,Overcast,190,2012-01-04 14:55:00
7:55 AM,57.6,39.4,51,30.09,10.0,SW,13.8,-,N/A,,Overcast,220,2012-01-04 15:55:00
8:54 AM,55.4,41.0,58,30.13,10.0,WSW,8.1,-,N/A,Rain,Light Rain,250,2012-01-04 16:54:00
8:55 AM,55.4,40.3,57,30.12,10.0,WSW,6.9,-,0.00,Rain,Light Rain,250,2012-01-04 16:55:00
9:03 AM,55.4,39.2,54,30.12,10.0,SW,9.2,-,N/A,,Overcast,220,2012-01-04 17:03:00
9:08 AM,55.4,39.2,54,30.13,10.0,SW,8.1,-,N/A,Rain,Light Rain,230,2012-01-04 17:08:00
9:51 AM,51.8,42.8,71,30.13,10.0,SW,6.9,-,N/A,,Overcast,230,2012-01-04 17:51:00
9:55 AM,51.8,43.7,74,30.13,10.0,SSW,5.8,-,0.04,,Overcast,210,2012-01-04 17:55:00
10:08 AM,51.8,42.8,71,30.16,10.0,WSW,10.4,-,N/A,Rain,Light Rain,250,2012-01-04 18:08:00
10:42 AM,51.8,44.6,76,30.14,10.0,South,13.8,19.6,N/A,,Overcast,190,2012-01-04 18:42:00
10:53 AM,50.0,44.6,82,30.14,9.0,South,9.2,-,N/A,Rain,Light Rain,190,2012-01-04 18:53:00
10:55 AM,50.7,44.8,80,30.14,9.0,South,10.4,-,0.04,Rain,Light Rain,190,2012-01-04 18:55:00
11:45 AM,50.0,46.4,87,30.13,10.0,South,11.5,-,N/A,,Overcast,180,2012-01-04 19:45:00
11:52 AM,50.0,46.4,87,30.12,8.0,South,10.4,-,N/A,Rain,Light Rain,180,2012-01-04 19:52:00
11:55 AM,49.3,47.3,93,30.12,7.0,South,10.4,-,0.06,Rain,Light Rain,170,2012-01-04 19:55:00
12:55 PM,49.6,48.0,94,30.09,8.0,SSE,11.5,-,0.05,,Overcast,160,2012-01-04 20:55:00
12:58 PM,50.0,48.2,94,30.10,6.0,SSE,11.5,-,N/A,Rain,Light Rain,160,2012-01-04 20:58:00
1:55 PM,49.1,48.7,99,30.10,7.0,SSE,4.6,-,0.10,Rain,Light Rain,160,2012-01-04 21:55:00
2:51 PM,50.0,50.0,100,30.10,9.0,South,5.8,-,N/A,Rain,Light Rain,170,2012-01-04 22:51:00
2:55 PM,49.8,49.6,99,30.09,9.0,South,4.6,-,0.04,Rain,Light Rain,180,2012-01-04 22:55:00
2:58 PM,50.0,50.0,100,30.10,10.0,South,5.8,-,N/A,Rain,Light Rain,180,2012-01-04 22:58:00
3:01 PM,50.0,50.0,100,30.10,10.0,South,6.9,-,N/A,,Overcast,170,2012-01-04 23:01:00
3:05 PM,50.0,50.0,100,30.09,10.0,South,5.8,-,N/A,Rain,Light Rain,170,2012-01-04 23:05:00
3:55 PM,50.5,50.4,99,30.08,10.0,South,11.5,-,0.03,Rain,Light Rain,170,2012-01-04 23:55:00
4:55 PM,50.7,50.5,99,30.07,10.0,South,12.7,-,0.01,Rain,Light Rain,170,2012-01-05 00:55:00
5:24 PM,50.0,50.0,100,30.08,10.0,South,11.5,-,N/A,,Overcast,170,2012-01-05 01:24:00
5:29 PM,50.0,50.0,100,30.08,10.0,South,12.7,-,N/A,Rain,Light Rain,170,2012-01-05 01:29:00
5:39 PM,50.0,50.0,100,30.08,10.0,South,11.5,-,N/A,,Overcast,180,2012-01-05 01:39:00
5:50 PM,51.8,50.0,94,30.09,10.0,South,15.0,23.0,N/A,Rain,Light Rain,180,2012-01-05 01:50:00
5:55 PM,51.3,50.2,96,30.08,10.0,South,15.0,-,0.01,Rain,Light Rain,180,2012-01-05 01:55:00
6:05 PM,51.8,50.0,94,30.08,10.0,South,16.1,-,N/A,,Overcast,190,2012-01-05 02:05:00
6:18 PM,51.8,50.0,94,30.08,10.0,South,15.0,-,N/A,,Overcast,180,2012-01-05 02:18:00
6:37 PM,51.8,50.0,94,30.07,10.0,South,18.4,-,N/A,Rain,Light Rain,180,2012-01-05 02:37:00
6:55 PM,51.6,49.6,93,30.08,10.0,South,18.4,25.3,0.01,Rain,Light Rain,180,2012-01-05 02:55:00
7:10 PM,51.8,50.0,94,30.08,9.0,South,16.1,-,N/A,,Overcast,190,2012-01-05 03:10:00
7:13 PM,51.8,50.0,94,30.09,8.0,South,16.1,-,N/A,Rain,Light Rain,190,2012-01-05 03:13:00
7:32 PM,51.8,50.0,94,30.10,9.0,SSW,19.6,24.2,N/A,Rain,Light Rain,200,2012-01-05 03:32:00
7:33 PM,51.8,50.0,94,30.10,9.0,South,19.6,24.2,N/A,Rain,Light Rain,190,2012-01-05 03:33:00
7:35 PM,51.8,50.0,94,30.10,9.0,SSW,16.1,24.2,N/A,Rain,Light Rain,200,2012-01-05 03:35:00
7:37 PM,51.8,50.0,94,30.11,7.0,South,15.0,24.2,N/A,,Overcast,190,2012-01-05 03:37:00
7:39 PM,51.8,50.0,94,30.10,6.0,South,17.3,24.2,N/A,Rain,Light Rain,190,2012-01-05 03:39:00
7:40 PM,51.8,50.0,94,30.10,6.0,South,16.1,24.2,N/A,,Overcast,190,2012-01-05 03:40:00
7:44 PM,51.8,50.0,94,30.11,5.0,South,15.0,23.0,N/A,,Overcast,190,2012-01-05 03:44:00
7:45 PM,51.8,50.0,94,30.11,6.0,South,15.0,23.0,N/A,Rain,Light Rain,190,2012-01-05 03:45:00
7:55 PM,50.9,50.2,97,30.12,10.0,SSW,13.8,21.9,0.04,Rain,Light Rain,200,2012-01-05 03:55:00
7:59 PM,51.8,50.0,94,30.12,10.0,SSW,10.4,21.9,N/A,,Overcast,200,2012-01-05 03:59:00
8:00 PM,51.8,50.0,94,30.12,10.0,SSW,10.4,21.9,N/A,Rain,Light Rain,200,2012-01-05 04:00:00
8:03 PM,51.8,50.0,94,30.12,10.0,SSW,12.7,-,N/A,,Overcast,200,2012-01-05 04:03:00
8:10 PM,51.8,50.0,94,30.13,10.0,SSW,15.0,25.3,N/A,,Overcast,210,2012-01-05 04:10:00
8:19 PM,50.0,50.0,100,30.13,10.0,SSW,13.8,-,N/A,,Mostly Cloudy,210,2012-01-05 04:19:00
8:25 PM,50.0,50.0,100,30.13,10.0,SSW,13.8,23.0,N/A,,Scattered Clouds,210,2012-01-05 04:25:00
8:55 PM,50.0,48.7,95,30.15,10.0,SSW,16.1,23.0,0.00,,Scattered Clouds,210,2012-01-05 04:55:00
9:55 PM,49.1,47.3,93,30.19,10.0,SSW,10.4,20.7,N/A,,Clear,200,2012-01-05 05:55:00
10:55 PM,48.4,44.8,87,30.19,10.0,SSW,11.5,-,N/A,,Overcast,200,2012-01-05 06:55:00
11:23 PM,48.2,44.6,87,30.20,10.0,SSW,8.1,-,N/A,Rain,Light Rain,200,2012-01-05 07:23:00
11:36 PM,48.2,46.4,93,30.21,10.0,SSW,5.8,-,N/A,Rain,Light Rain,210,2012-01-05 07:36:00
11:41 PM,46.4,46.4,100,30.21,10.0,SW,4.6,-,N/A,Rain,Light Rain,230,2012-01-05 07:41:00
11:55 PM,47.3,45.5,93,30.21,10.0,SSW,5.8,-,0.01,Rain,Light Rain,200,2012-01-05 07:55:00
11:58 PM,48.2,44.6,87,30.21,10.0,SSW,8.1,-,N/A,,Mostly Cloudy,200,2012-01-05 07:58:00